Weather History for KIZG - October, 2012

Change the Weather History Date:

Monday, October 15, 2012

  Actual Average Record
Temperature  
Mean Temperature 55 °F -  
Max Temperature 64 °F 57 °F 77 °F (2014)
Min Temperature 46 °F 32 °F 26 °F (1999)
Degree Days  
Heating Degree Days 10    
Growing Degree Days 5 (Base 50)    
Moisture  
Dew Point 53 °F    
Average Humidity 95    
Maximum Humidity 100    
Minimum Humidity 78    
Precipitation  
Precipitation 0.48 in - - ()
Sea Level Pressure  
Sea Level Pressure 29.70 in    
Wind  
Wind Speed 0 mph (South)    
Max Wind Speed 5 mph    
Max Gust Speed -    
Visibility 5 miles    
Events Fog , Rain , Thunderstorm    
Averages and records for this station are not official NWS values.
T = Trace of Precipitation, MM = Missing Value Source: NWS Daily Summary

Daily Weather History Graph

Daily Weather History Graph

Search for Another Location

Airport or City:

Trip Planner

Search our weather history database for the weather conditions in past years. The results will help you decide how hot, cold, wet, or windy it might be!

Date:

Astronomy

Oct. 15, 2012 Rise Set
Actual Time 6:58 AM EDT 5:59 PM EDT
Civil Twilight 6:29 AM EDT 6:28 PM EDT
Nautical Twilight 5:56 AM EDT 7:01 PM EDT
Astronomical Twilight 5:22 AM EDT 7:35 PM EDT
Moon 7:07 AM EDT (10/15) 5:53 PM EDT (10/15)
Length of Visible Light 11h 58m
Length of Day
11h 00m
New Moon, 0% of the Moon is Illuminated
Oct 15
New Moon
Oct 21
First Quarter
Oct 29
Full
Nov 6
Last Quarter
Nov 13
New

Hourly Weather History & Observations

Time (EDT) Temp. Dew Point Humidity Pressure Visibility Wind Dir Wind Speed Gust Speed Precip Events Conditions
12:54 AM 46.9 °F 46.0 °F 97% 29.91 in 10.0 mi Calm Calm - N/A   Overcast
1:12 AM 46.4 °F 46.4 °F 100% 29.89 in 1.8 mi Calm Calm - N/A   Overcast
1:44 AM 46.4 °F 46.4 °F 100% 29.88 in 0.2 mi Calm Calm - N/A Fog Fog
1:54 AM 46.9 °F 46.9 °F 100% 29.88 in 0.2 mi Calm Calm - N/A Fog Fog
2:54 AM 46.9 °F 46.9 °F 100% 29.86 in 0.2 mi Calm Calm - N/A Fog Fog
3:54 AM 46.9 °F 46.9 °F 100% 29.84 in 0.2 mi Calm Calm - N/A Fog Fog
4:09 AM 46.4 °F 46.4 °F 100% 29.83 in 0.5 mi Calm Calm - N/A Fog Fog
4:49 AM 46.4 °F 46.4 °F 100% 29.81 in 0.5 mi Calm Calm - N/A Fog Fog
4:54 AM 46.9 °F 46.9 °F 100% 29.82 in 0.2 mi Calm Calm - N/A Fog Fog
5:54 AM 46.9 °F 46.9 °F 100% 29.81 in 0.2 mi Calm Calm - N/A Fog Fog
6:54 AM 46.0 °F 46.0 °F 100% 29.78 in 0.2 mi Calm Calm - 0.00 in Fog Fog
7:54 AM 46.9 °F 46.9 °F 100% 29.78 in 0.2 mi Calm Calm - N/A Fog Fog
8:26 AM 48.2 °F 46.4 °F 93% 29.77 in 1.2 mi Calm Calm - N/A   Overcast
8:38 AM 48.2 °F 46.4 °F 93% 29.77 in 1.8 mi Calm Calm - N/A   Overcast
8:46 AM 48.2 °F 48.2 °F 100% 29.77 in 2.0 mi Calm Calm - N/A   Overcast
8:54 AM 48.0 °F 48.0 °F 100% 29.78 in 2.5 mi Calm Calm - N/A   Overcast
9:07 AM 48.2 °F 48.2 °F 100% 29.77 in 5.0 mi Calm Calm - N/A   Overcast
9:45 AM 50.0 °F 50.0 °F 100% 29.76 in 9.0 mi Calm Calm - N/A   Overcast
9:54 AM 51.1 °F 50.0 °F 96% 29.77 in 9.0 mi Calm Calm - N/A   Overcast
10:54 AM 55.0 °F 52.0 °F 89% 29.75 in 10.0 mi Calm Calm - 0.00 in   Overcast
11:54 AM 57.0 °F 53.1 °F 87% 29.73 in 10.0 mi Calm Calm - N/A   Overcast
12:54 PM 60.1 °F 55.0 °F 83% 29.70 in 10.0 mi Calm Calm - N/A   Overcast
1:54 PM 62.1 °F 57.0 °F 84% 29.68 in 10.0 mi Calm Calm - N/A   Overcast
2:16 PM 62.6 °F 57.2 °F 82% 29.66 in 10.0 mi Calm Calm - N/A   Overcast
2:28 PM 62.6 °F 57.2 °F 82% 29.66 in 10.0 mi Calm Calm - N/A   Overcast
2:51 PM 62.6 °F 57.2 °F 82% 29.65 in 10.0 mi Calm Calm - N/A   Overcast
2:54 PM 64.0 °F 57.0 °F 78% 29.66 in 10.0 mi Calm Calm - N/A   Overcast
3:54 PM 64.9 °F 57.9 °F 78% 29.64 in 10.0 mi Calm Calm - N/A   Overcast
4:54 PM 62.1 °F 57.0 °F 84% 29.63 in 10.0 mi Calm Calm - N/A   Overcast
5:54 PM 61.0 °F 57.0 °F 87% 29.62 in 10.0 mi Calm Calm - 0.00 in   Mostly Cloudy
6:54 PM 59.0 °F 55.9 °F 90% 29.62 in 10.0 mi Calm Calm - N/A   Overcast
7:03 PM 57.2 °F 55.4 °F 94% 29.61 in 2.5 mi Calm Calm - 0.06 in Rain Rain
7:12 PM 57.2 °F 57.2 °F 100% 29.61 in 1.5 mi Calm Calm - 0.15 in Rain Rain
7:21 PM 57.2 °F 57.2 °F 100% 29.62 in 2.5 mi Calm Calm - 0.18 in Rain Rain
7:38 PM 57.2 °F 57.2 °F 100% 29.60 in 5.0 mi Calm Calm - 0.22 in Rain Light Rain
7:54 PM 57.9 °F 57.9 °F 100% 29.60 in 5.0 mi Calm Calm - 0.22 in Rain Light Rain
8:47 PM 57.2 °F 57.2 °F 100% 29.60 in 3.0 mi Calm Calm - 0.08 in Rain , Thunderstorm Rain
8:54 PM 57.9 °F 57.9 °F 100% 29.60 in 3.0 mi Calm Calm - 0.10 in Rain , Thunderstorm Rain
9:02 PM 59.0 °F 57.2 °F 94% 29.60 in 3.0 mi Calm Calm - 0.01 in Rain Rain
9:26 PM 57.2 °F 57.2 °F 100% 29.60 in 2.5 mi Calm Calm - 0.08 in Rain Rain
9:54 PM 60.1 °F 59.0 °F 96% 29.60 in 5.0 mi SSE 3.5 mph - 0.15 in Rain Light Rain
10:06 PM 60.8 °F 60.8 °F 100% 29.60 in 7.0 mi SSE 3.5 mph - 0.01 in Rain Light Rain
10:54 PM 60.1 °F 59.0 °F 96% 29.58 in 10.0 mi SSE 3.5 mph - 0.01 in   Overcast
11:39 PM 60.8 °F 59.0 °F 94% 29.58 in 10.0 mi SSW 3.5 mph - N/A   Overcast
11:51 PM 60.8 °F 59.0 °F 94% 29.57 in 10.0 mi SSW 4.6 mph - N/A   Overcast
11:54 PM 60.1 °F 59.0 °F 96% 29.57 in 10.0 mi SSW 3.5 mph - N/A   Overcast